Flag for Afghanistan Weather past 2 weeks in Ghazni, Afghanistan

Now
46 °F

Cool.


Feels Like: N/A
Forecast: 1 / 28 °F
Wind: N/A

Location: Peshawar Airport

Current Time: Jan 25, 2015 at 8:47:01 AM

Latest Report: Jan 25, 2015 at 7:30 AM


Visibility: N/A

Pressure: 30.18 "Hg

Humidity: 82%

Dew point: 41 °F

Location of GhazniLocation

Historic Weather in Ghazni — Graph

°F

Ghazni temperature yesterday

Maximum temperature yesterday: 63 °F (at 2:30 PM)
Minimum temperature yesterday: 46 °F (at 2:30 AM)
Average temperature yesterday: 53 °F

Past Weeks' High & Low Weather Summary

 TemperatureHumidityPressure
High72 °F (Jan 10, 1:30 PM)100% (Jan 21, 5:30 PM)30.27 "Hg (Jan 21, 5:30 PM)
Low41 °F (Jan 10, 7:30 AM)20% (Jan 10, 1:30 PM)29.89 "Hg (Jan 19, 2:30 PM)
Average53 °F67%30.11 "Hg
* Reported Jan 10 7:30 AM — Jan 25 7:30 AM, Ghazni, Weather by CustomWeather, © 2014

Note: Actual official high and low records may vary slightly from our data, if they occured in-between our weather recording intervals... More about our weather records

Advertising

Ghazni weather history for previous 24 hours

 ConditionsComfort  
Time TempWeatherWind HumidityBarometerVisibility
7:30 AM
Jan 25
46 °FCool.N/A82%30.18 "HgN/A
6:30 AM45 °FQuite cool.N/A87%30.15 "HgN/A
5:30 AM45 °FQuite cool.N/A87%30.15 "HgN/A
4:29 AM45 °FQuite cool.N/A87%30.18 "HgN/A
3:30 AM46 °FCool.N/A87%30.15 "HgN/A
2:30 AM46 °FCool.N/A82%30.15 "HgN/A
1:30 AM50 °FCool.N/A76%30.18 "HgN/A
11:30 PM
Jan 24
52 °FCool.N/A72%30.18 "HgN/A
10:30 PM54 °FCool.N/A67%30.18 "HgN/A
9:30 PM52 °FCool.N/A72%30.18 "HgN/A
8:30 PM54 °FCool.N/A67%30.18 "HgN/A
7:30 PM55 °FCool.N/A63%30.15 "HgN/A
6:30 PM55 °FCool.N/A63%30.12 "HgN/A
5:30 PM55 °FPassing clouds.No wind63%30.12 "Hg2 mi
4:30 PM59 °FHaze.No wind59%30.09 "Hg2 mi
3:30 PM61 °FRefreshingly cool.N/A55%30.09 "HgN/A
2:30 PM63 °FMild.N/A52%30.09 "HgN/A
1:30 PM61 °FScattered clouds.No wind59%30.12 "Hg2 mi
12:30 PM59 °FCool.N/A63%30.12 "HgN/A
11:30 AM57 °FCool.N/A67%30.15 "HgN/A
10:30 AM55 °FCool.N/A72%30.15 "HgN/A
9:30 AM52 °FPartly sunny.No wind72%30.18 "Hg1 mi
8:30 AM50 °FFog.No wind82%30.15 "Hg1 mi
Weather by CustomWeather, © 2014

See weather overviewHow to use our weather pages